Location: Recife
(8.0585°S, 34.8848°W)
Time: 07:40:33
(UTC-03:00)

Vanguard 1 Rocket - Pass Details

Date: 21 April 2026
Orbit: 655 x 4212 km, 34.3° (Epoch: 13 May)

Event Time Altitude Azimuth Distance (km) Brightness Sun altitude
Rises 18:57:35 0° 270° (W) 6,331 13.0 -25.9°
Reaches altitude 10° 19:02:23 10° 282° (WNW) 5,816 12.5 -27.0°
Maximum altitude 19:17:40 27° 333° (NNW) 5,610 11.6 -30.8°
Drops below altitude 10° 19:37:34 10° 23° (NNE) 7,384 11.9 -35.6°
Sets 19:45:15 0° 35° (NE) 8,242 12.1 -37.5°
